GLOBALSTAR M094 [+]

Last updated on Fri Dec 29 2023 00:02:57 GMT+0000 (Coordinated Universal Time)

1 39074U 13005C 23362.15063044 -.00000086 00000+0 10116-3 0 9997 2 39074 51.9980 17.2347 0000378 138.2386 221.8510 12.62270700504577

Satellite not in orbit

GLOBALSTAR M094 [+]